Tracking 29594 objects as of 20-Sep-2024
HD Live streaming from Space Station
objects crossing your sky now

THOR ABLESTAR DEB *

Track THOR ABLESTAR DEB * now!
10-day predictions


NORAD ID: 21970
Int'l Code: 1961-015ML
Perigee: 278.6 km
Apogee: 314.2 km
Inclination: 66.0 °
Period: 90.3 minutes
Semi major axis: 6667 km
RCS: 0.0158 m2 (small)
Launch date: June 29, 1961
Source: United States (US)
Launch site: AIR FORCE EASTERN TEST RANGE (AFETR)

Note: This is SATELLITE DEBRIS
Your satellite tracking list
Your tracking list is empty




NASA's NSSDC Master Catalog

Two Line Element Set (TLE):
1 21970U 61015ML  24263.11007252  .00650423  18239-3  16424-2 0  9992
2 21970  65.9505 147.3549 0026696  92.4707 267.9523 15.94649837750813
Source of the keplerian elements: AFSPC